(336) Lacadiera
ephemeris date magn radius delta ra dec elong phase
Today6 Jul 202514.82.460 AU3.472 AU06h44m+20°14'4.4°1.8°
Opposition1 Mar 202612.72.291 AU1.308 AU10h35m-01°22'170.4°4.1°
(336) Lacadiera - 2025-07-06
astro.vanbuitenen.nl


 
-1 year
-1 month
-1 day
Now
+1 day
+1 month
+1 year

The interactive orbit chart above shows the body's path through the solar system and its position at the given date. Green and blue lines are shown perpendicular to the ecliptic plane: Green if the path is above the ecliptic plane, blue if it is below. (Left-click and drag to rotate the view; Right-click and drag to move the view; Use scroll wheel to zoom in our out.)

The orbital elements of Lacadiera are:

            e (Eccentricity)                : 0.0946707
            a (Semimajor axis)              : 2.2528717
            i (Inclination)                 : 5.65058
            Ω (Longitude of ascending node) : 234.98228
            ω (Argument of perihelion)      : 31.35156
            M (Mean anomaly)                : 177.38949
            Epoch                           : 2025 May 05

            L (Longitude of perihelion)     : 266.20997
            B (Latitude of perihelion)      : 2.93645
            P (Orbital period in years)     : 3.38            
        

The light curve chart below shows the estimated development of the minor planet's magnitude.


The all-sky chart below shows the path of the minor planet over the same period as the light curve. The current position is marked yellow.





The following chart shows the path of the minor planet in the next few days. The field of view is optimized for (~10x50) binoculars and finderscopes. A more printer-friendly version of the same chart can be found below.




Ephemerides:
Date       Time       RA (2000)    DEC (2000)    delta   radius  elong  phase   PA    magn
2025-07-06 00:00 UT   06 44 34.6   +20 14 48     3.472    2.460    4.4    1.8   235   14.8 
2025-07-06 06:14 UT   06 45 04.4   +20 14 03     3.472    2.460    4.5    1.9   236   14.8 
2025-07-07 00:00 UT   06 46 29.2   +20 11 54     3.471    2.459    4.8    2.0   239   14.8 
2025-07-08 00:00 UT   06 48 23.8   +20 08 56     3.470    2.459    5.2    2.2   242   14.9 
2025-07-09 00:00 UT   06 50 18.3   +20 05 52     3.469    2.459    5.7    2.3   245   14.9 
2025-07-10 00:00 UT   06 52 12.7   +20 02 42     3.467    2.459    6.1    2.5   248   14.9 
2025-07-11 00:00 UT   06 54 07.0   +19 59 27     3.466    2.458    6.5    2.7   250   14.9 
2025-07-12 00:00 UT   06 56 01.2   +19 56 07     3.464    2.458    7.0    2.9   252   14.9 
2025-07-13 00:00 UT   06 57 55.4   +19 52 41     3.462    2.458    7.5    3.1   253   14.9 
2025-07-14 00:00 UT   06 59 49.4   +19 49 10     3.460    2.458    7.9    3.3   255   14.9 
2025-07-15 00:00 UT   07 01 43.3   +19 45 34     3.458    2.457    8.4    3.5   256   14.9 
2025-07-16 00:00 UT   07 03 37.1   +19 41 53     3.456    2.457    8.9    3.7   257   14.9 
2025-07-17 00:00 UT   07 05 30.8   +19 38 06     3.454    2.457    9.4    3.9   258   15.0 
2025-07-18 00:00 UT   07 07 24.4   +19 34 13     3.452    2.456    9.9    4.1   259   15.0 
2025-07-19 00:00 UT   07 09 17.9   +19 30 16     3.449    2.456   10.3    4.3   260   15.0 
2025-07-20 00:00 UT   07 11 11.3   +19 26 13     3.446    2.456   10.8    4.5   261   15.0 
2025-07-21 00:00 UT   07 13 04.5   +19 22 05     3.444    2.456   11.3    4.7   262   15.0 
2025-07-22 00:00 UT   07 14 57.6   +19 17 52     3.441    2.455   11.8    4.9   263   15.0 
2025-07-23 00:00 UT   07 16 50.6   +19 13 33     3.438    2.455   12.3    5.1   264   15.0 
2025-07-24 00:00 UT   07 18 43.5   +19 09 09     3.435    2.455   12.8    5.3   264   15.0 


    Terminology:
            
    delta:  distance between minor planet and earth in AU
    radius: distance between minor planet and sun in AU
    magn:   magnitude (brightness) estimate    
    ra:     right ascension in hours (24h = 360deg)
    dec:    declination in degrees
    elong:  elongation in degrees (angle sun-earth-minor planet)    
    phase:  phase angle in degrees (angle sun-minor planet-earth)        
    AU:     Astronomical Unit (mean distance between earth and sun: 149597870.7 km
    

Orbital elements provided by the MPC (Minor Planet Center).
Calculations by a modified version of AAPlus, a C# implementation of the AA+ project by PJ Naughter from the algorithms presented in the book "Astronomical Algorithms" by Jean Meeus.
NGC2000 dso catalog and star labels from VizieR as provided by the Strasbourg astronomical Data Center.
Tycho2 catalog from the ESO archive.